TimeCST,TemperatureF,Dew PointF,Humidity,Sea Level PressureIn,VisibilityMPH,Wind Direction,Wind SpeedMPH,Gust SpeedMPH,PrecipitationIn,Events,Conditions,WindDirDegrees,DateUTC
12:53 AM,43.0,19.9,40,30.30,10.0,SE,8.1,-,N/A,,Clear,140,2012-12-13 06:53:00
1:53 AM,43.0,19.0,38,30.29,10.0,SE,9.2,-,N/A,,Clear,140,2012-12-13 07:53:00
2:53 AM,37.0,19.9,50,30.30,10.0,SSE,8.1,-,N/A,,Clear,150,2012-12-13 08:53:00
3:53 AM,37.9,21.0,51,30.30,10.0,SE,5.8,-,N/A,,Clear,140,2012-12-13 09:53:00
4:53 AM,35.1,21.9,59,30.30,10.0,SSE,6.9,-,N/A,,Clear,150,2012-12-13 10:53:00
5:53 AM,34.0,23.0,64,30.31,10.0,SSE,6.9,-,N/A,,Clear,160,2012-12-13 11:53:00
6:53 AM,32.0,23.0,69,30.32,10.0,SSE,6.9,-,N/A,,Clear,160,2012-12-13 12:53:00
7:53 AM,34.0,25.0,70,30.33,10.0,SSE,5.8,-,N/A,,Clear,150,2012-12-13 13:53:00
8:53 AM,42.1,26.1,53,30.35,10.0,South,10.4,-,N/A,,Clear,170,2012-12-13 14:53:00
9:53 AM,48.9,25.0,39,30.35,10.0,SSE,10.4,-,N/A,,Clear,160,2012-12-13 15:53:00
10:53 AM,54.0,24.1,31,30.34,10.0,SSE,11.5,-,N/A,,Clear,160,2012-12-13 16:53:00
11:53 AM,59.0,23.0,25,30.31,10.0,SSE,8.1,-,N/A,,Clear,150,2012-12-13 17:53:00
12:53 PM,62.1,23.0,22,30.28,10.0,SSE,11.5,-,N/A,,Clear,160,2012-12-13 18:53:00
1:53 PM,64.0,21.9,20,30.24,10.0,South,9.2,16.1,N/A,,Clear,170,2012-12-13 19:53:00
2:53 PM,64.9,21.9,19,30.22,10.0,South,11.5,18.4,N/A,,Clear,170,2012-12-13 20:53:00
3:53 PM,64.0,23.0,21,30.21,10.0,SSE,12.7,-,N/A,,Clear,150,2012-12-13 21:53:00
6:53 PM,51.1,26.1,38,30.22,10.0,ESE,9.2,-,N/A,,Clear,120,2012-12-14 00:53:00
7:53 PM,53.1,26.1,35,30.23,10.0,SE,8.1,-,N/A,,Clear,140,2012-12-14 01:53:00
8:53 PM,52.0,27.0,38,30.21,10.0,SE,10.4,-,N/A,,Clear,130,2012-12-14 02:53:00
9:53 PM,50.0,27.0,41,30.22,10.0,SSE,9.2,-,N/A,,Clear,150,2012-12-14 03:53:00
10:53 PM,48.9,26.1,41,30.23,8.0,SSE,8.1,-,N/A,,Clear,150,2012-12-14 04:53:00